Weather History for KMOP - October, 2012

Change the Weather History Date:

Wednesday, October 31, 2012

  Actual Average (KAMN) Record (KAMN)
Temperature  
Mean Temperature 39 °F -  
Max Temperature 43 °F 56 °F 74 °F (1989)
Min Temperature 35 °F 35 °F 21 °F (1988)
Degree Days  
Heating Degree Days 26    
Moisture  
Dew Point 34 °F    
Average Humidity 81    
Maximum Humidity 92    
Minimum Humidity 72    
Precipitation  
Precipitation 0.00 in - - ()
Sea Level Pressure  
Sea Level Pressure 29.61 in    
Wind  
Wind Speed 9 mph (NW)    
Max Wind Speed 14 mph    
Max Gust Speed 24 mph    
Visibility 9 miles    
Events Rain    
Averages and records for this station are not official NWS values.
T = Trace of Precipitation, MM = Missing Value Source: NWS Daily Summary

Daily Weather History Graph

Daily Weather History Graph

Search for Another Location

Airport or City:

Trip Planner

Search our weather history database for the weather conditions in past years. The results will help you decide how hot, cold, wet, or windy it might be!

Date:

Astronomy

Oct. 31, 2012 Rise Set
Actual Time 8:14 AM EDT 6:30 PM EDT
Civil Twilight 7:44 AM EDT 7:00 PM EDT
Nautical Twilight 7:10 AM EDT 7:34 PM EDT
Astronomical Twilight 6:36 AM EDT 8:07 PM EDT
Moon 7:37 PM EDT (10/31) 9:57 AM EDT (10/31)
Length of Visible Light 11h 16m
Length of Day
10h 16m
Full, 97% of the Moon is Illuminated
Oct 31
Full
Nov 6
Last Quarter
Nov 13
New
Nov 20
First Quarter
Nov 28
Full

Hourly Weather History & Observations

Time (EDT) Temp. Windchill Dew Point Humidity Pressure Visibility Wind Dir Wind Speed Gust Speed Precip Events Conditions
12:15 AM 35.6 °F 29.2 °F 32.2 °F 87% 29.60 in 10.0 mi NNW 8.1 mph 16.1 mph N/A   Overcast
12:35 AM 35.6 °F 28.0 °F 32.0 °F 87% 29.59 in 7.0 mi NNW 10.4 mph - N/A   Overcast
12:55 AM 35.8 °F 27.8 °F 32.2 °F 87% 29.59 in 10.0 mi NNW 11.5 mph 20.7 mph N/A   Overcast
1:15 AM 35.8 °F 28.3 °F 32.0 °F 86% 29.59 in 10.0 mi NNW 10.4 mph - N/A   Overcast
1:35 AM 36.0 °F 28.0 °F 32.0 °F 86% 29.59 in 10.0 mi NW 11.5 mph 18.4 mph N/A   Overcast
1:55 AM 36.0 °F 28.0 °F 32.0 °F 86% 29.58 in 10.0 mi NNW 11.5 mph 16.1 mph N/A   Overcast
2:15 AM 36.1 °F 28.7 °F 32.0 °F 85% 29.58 in 10.0 mi NNW 10.4 mph 17.3 mph N/A   Overcast
2:35 AM 36.3 °F 28.9 °F 32.0 °F 84% 29.58 in 10.0 mi NW 10.4 mph - N/A   Overcast
2:55 AM 36.5 °F 29.7 °F 32.0 °F 84% 29.58 in 10.0 mi NNW 9.2 mph 18.4 mph N/A   Overcast
3:14 AM 36.5 °F 29.2 °F 32.0 °F 84% 29.58 in 10.0 mi NW 10.4 mph - N/A   Overcast
3:55 AM 36.5 °F 31.0 °F 32.0 °F 84% 29.59 in 10.0 mi NW 6.9 mph 16.1 mph N/A   Overcast
4:15 AM 36.5 °F 29.7 °F 32.0 °F 84% 29.59 in 10.0 mi NNW 9.2 mph - N/A   Overcast
4:35 AM 36.1 °F 29.3 °F 32.0 °F 85% 29.59 in 7.0 mi NNW 9.2 mph - N/A   Overcast
4:55 AM 35.8 °F 28.8 °F 32.5 °F 88% 29.59 in 5.0 mi NNW 9.2 mph - N/A   Overcast
5:15 AM 35.6 °F 29.2 °F 32.5 °F 89% 29.59 in 5.0 mi NNW 8.1 mph - N/A   Overcast
5:35 AM 35.8 °F 30.9 °F 32.9 °F 89% 29.59 in 4.0 mi NNW 5.8 mph - N/A   Overcast
5:55 AM 35.8 °F 30.1 °F 32.9 °F 89% 29.59 in 4.0 mi NW 6.9 mph - N/A   Light Drizzle
6:15 AM 35.8 °F 30.1 °F 33.1 °F 90% 29.59 in 3.0 mi NW 6.9 mph - N/A Rain Light Rain
6:35 AM 35.8 °F 30.9 °F 33.3 °F 91% 29.60 in 4.0 mi NNW 5.8 mph - N/A   Overcast
6:55 AM 36.0 °F 30.3 °F 32.9 °F 89% 29.60 in 5.0 mi NW 6.9 mph - N/A   Overcast
7:15 AM 36.0 °F 32.1 °F 33.1 °F 89% 29.60 in 4.0 mi NNW 4.6 mph - N/A   Overcast
7:35 AM 35.8 °F 33.0 °F 33.3 °F 91% 29.60 in 4.0 mi NNW 3.5 mph - N/A   Overcast
8:15 AM 36.1 °F 31.4 °F 34.0 °F 92% 29.60 in 4.0 mi NW 5.8 mph - N/A   Overcast
8:35 AM 36.5 °F 31.8 °F 33.8 °F 90% 29.60 in 7.0 mi NW 5.8 mph - N/A   Overcast
8:55 AM 36.9 °F 33.1 °F 33.8 °F 89% 29.61 in 10.0 mi NW 4.6 mph - N/A   Overcast
9:15 AM 37.2 °F 33.6 °F 34.0 °F 88% 29.61 in 10.0 mi NW 4.6 mph - N/A   Overcast
9:35 AM 37.9 °F 33.5 °F 34.0 °F 86% 29.60 in 10.0 mi NW 5.8 mph - N/A   Overcast
9:55 AM 38.5 °F 34.1 °F 34.2 °F 84% 29.61 in 10.0 mi NNW 5.8 mph - N/A   Overcast
10:15 AM 38.8 °F 35.4 °F 34.2 °F 83% 29.60 in 10.0 mi NW 4.6 mph - N/A   Overcast
10:35 AM 39.7 °F 35.6 °F 34.7 °F 82% 29.60 in 10.0 mi NW 5.8 mph - N/A   Overcast
10:55 AM 40.6 °F 34.3 °F 34.7 °F 79% 29.60 in 10.0 mi NW 10.4 mph - N/A   Overcast
11:15 AM 41.0 °F 36.4 °F 35.2 °F 80% 29.60 in 10.0 mi NW 6.9 mph - N/A   Overcast
11:35 AM 41.4 °F 35.7 °F 35.1 °F 78% 29.59 in 10.0 mi NW 9.2 mph - N/A   Overcast
11:55 AM 41.9 °F 34.6 °F 34.9 °F 76% 29.60 in 10.0 mi NNW 13.8 mph 19.6 mph N/A   Overcast
12:20 PM 42.3 °F 35.9 °F 34.7 °F 75% 29.60 in 10.0 mi NNW 11.5 mph 24.2 mph N/A   Overcast
12:35 PM 42.8 °F 36.6 °F 35.1 °F 74% 29.60 in 10.0 mi NW 11.5 mph 19.6 mph N/A   Overcast
12:55 PM 43.0 °F 36.8 °F 34.9 °F 73% 29.60 in 10.0 mi NW 11.5 mph 17.3 mph N/A   Overcast
1:15 PM 43.2 °F 38.4 °F 34.9 °F 73% 29.60 in 10.0 mi NNW 8.1 mph 18.4 mph N/A   Overcast
1:35 PM 42.8 °F 36.6 °F 34.7 °F 73% 29.60 in 10.0 mi NNW 11.5 mph 18.4 mph N/A   Overcast
1:55 PM 42.8 °F 36.2 °F 34.2 °F 72% 29.60 in 10.0 mi NW 12.7 mph 18.4 mph N/A   Overcast
2:20 PM 42.8 °F 36.6 °F 34.5 °F 73% 29.60 in 10.0 mi NW 11.5 mph 16.1 mph N/A   Overcast
2:35 PM 42.3 °F 37.3 °F 35.2 °F 76% 29.60 in 10.0 mi NW 8.1 mph 16.1 mph N/A   Overcast
3:15 PM 42.1 °F 36.6 °F 35.6 °F 78% 29.60 in 10.0 mi NW 9.2 mph 19.6 mph N/A   Overcast
3:35 PM 41.9 °F 36.9 °F 35.6 °F 78% 29.60 in 10.0 mi NW 8.1 mph 17.3 mph N/A   Overcast
3:55 PM 41.9 °F 35.0 °F 35.2 °F 77% 29.60 in 10.0 mi NW 12.7 mph 19.6 mph N/A   Overcast
4:15 PM 42.4 °F 38.8 °F 34.9 °F 75% 29.61 in 10.0 mi NW 5.8 mph 18.4 mph N/A   Overcast
4:35 PM 42.4 °F 36.1 °F 34.2 °F 72% 29.61 in 10.0 mi NW 11.5 mph 19.6 mph N/A   Overcast
4:55 PM 42.3 °F 35.9 °F 34.2 °F 73% 29.61 in 10.0 mi NW 11.5 mph 24.2 mph N/A   Overcast
5:15 PM 42.3 °F 35.9 °F 34.7 °F 75% 29.62 in 10.0 mi WNW 11.5 mph 18.4 mph N/A   Overcast
5:35 PM 41.9 °F 34.6 °F 34.9 °F 76% 29.62 in 10.0 mi NW 13.8 mph 18.4 mph N/A   Overcast
5:55 PM 41.7 °F 35.2 °F 34.7 °F 76% 29.63 in 10.0 mi NW 11.5 mph 19.6 mph N/A   Overcast
6:15 PM 41.4 °F 35.2 °F 34.7 °F 77% 29.63 in 10.0 mi NW 10.4 mph - N/A   Overcast
6:35 PM 41.7 °F 36.1 °F 34.0 °F 74% 29.64 in 10.0 mi NW 9.2 mph 18.4 mph N/A   Overcast
6:54 PM 41.5 °F 35.0 °F 34.0 °F 75% 29.64 in 10.0 mi NW 11.5 mph 17.3 mph N/A   Overcast
7:15 PM 41.5 °F 35.0 °F 33.8 °F 74% 29.64 in 10.0 mi NW 11.5 mph 18.4 mph N/A   Overcast
7:35 PM 41.4 °F 35.2 °F 34.2 °F 76% 29.65 in 10.0 mi NW 10.4 mph 18.4 mph N/A   Overcast
7:54 PM 41.2 °F 35.0 °F 34.2 °F 76% 29.66 in 10.0 mi NW 10.4 mph 20.7 mph N/A   Overcast
8:15 PM 41.2 °F 36.0 °F 34.2 °F 76% 29.66 in 10.0 mi NW 8.1 mph 17.3 mph N/A   Overcast
8:35 PM 41.4 °F 35.2 °F 34.2 °F 76% 29.66 in 10.0 mi NW 10.4 mph 19.6 mph N/A   Overcast
8:54 PM 41.2 °F 35.0 °F 34.3 °F 77% 29.66 in 10.0 mi NW 10.4 mph 17.3 mph N/A   Overcast
9:15 PM 41.2 °F 34.5 °F 34.5 °F 77% 29.66 in 10.0 mi NW 11.5 mph 17.3 mph N/A   Overcast
9:35 PM 41.0 °F 36.4 °F 34.7 °F 78% 29.66 in 10.0 mi NW 6.9 mph 17.3 mph N/A   Overcast
9:55 PM 41.0 °F 35.2 °F 34.7 °F 78% 29.66 in 10.0 mi WNW 9.2 mph 17.3 mph N/A   Overcast
10:15 PM 40.3 °F 34.4 °F 35.6 °F 83% 29.67 in 10.0 mi WNW 9.2 mph - N/A   Overcast
10:35 PM 40.1 °F 33.2 °F 35.6 °F 84% 29.68 in 10.0 mi NW 11.5 mph 17.3 mph N/A   Overcast
11:15 PM 41.0 °F 34.7 °F 35.1 °F 79% 29.67 in 10.0 mi WNW 10.4 mph - N/A   Overcast
11:35 PM 40.5 °F 35.8 °F 35.6 °F 83% 29.67 in 10.0 mi NW 6.9 mph - N/A   Overcast
11:55 PM 41.0 °F 38.0 °F 35.4 °F 81% 29.67 in 10.0 mi WNW 4.6 mph - N/A   Overcast